Current weather by "City, St" or "zip code"  
 

Current Conditions: Tazewell County Airport, VA

Overcast


60.0 F

Last Updated on Sep 18 2020, 3:35 am EDT
Humidity: 99%
Wind Speed: N 0.0 mph
Barometer 29.99 in
Dewpoint: 59.4 F
Visibility: 10.00 mi
Precip: --
Heat Index: NA
Wind Chill: NA
Current conditions at:

Tazewell County Airport, VA (KJFZ)

Lat: 37.064 Lon: 81.798

Local Radar Image active severe weather and emergency alerts image image weather storm and storm spotter reports image weather observation monitoring service image
Local
Radar
Active
Alerts
Storm Reports Obs
Monitoring

Sign-up For Email & Text Message Weather Alert Notification Services



Advertise Here

Observation History for Tazewell County Airport, VA


Time Wind
(mph)
Vis
(mi)
Weather Precip (in) Temperature (F) Relative
Humidity
Wind
Chill
(F)
Heat
Index
(F)
Pressure
Air Dwpt altimeter
(in)
sea level
(mb)
Rmks
3:35 am EDT N 0.0 10.00 Overcast -- 60.0 59.4 99% NA NA 29.99 M
2:55 am EDT NW 3.5 2.50 Fog/Mist -- 60.0 59.4 99% NA NA 29.99 M
2:35 am EDT N 0.0 2.50 Fog/Mist -- 60.0 59.5 99% NA NA 29.99 M
1:55 am EDT N 0.0 10.00 Overcast -- 60.0 59.4 98% NA NA 29.99 M
1:15 am EDT N 0.0 10.00 Overcast -- 60.0 59.4 98% NA NA 29.99 M
12:55 am EDT NE 3.5 10.00 Overcast -- 60.0 59.2 97% NA NA 30.00 M
12:35 am EDT N 0.0 10.00 Overcast -- 60.0 59.4 98% NA NA 30.00 M
11:55 pm EDT NE 4.6 10.00 Overcast -- 60.0 59.2 97% 60 NA 30.00 M
11:35 pm EDT NE 4.6 10.00 Overcast -- 60.0 59.0 97% 60 NA 30.00 M
10:55 pm EDT NE 3.5 10.00 Overcast -- 60.0 59.0 98% NA NA 30.00 M
9:55 pm EDT N 5.8 5.00 Fog/Mist -- 60.0 59.5 99% 60 NA 30.00 M
8:55 pm EDT NE 5.8 10.00 Overcast -- 60.0 59.9 99% 60 NA 30.00 M
7:55 pm EDT N 4.6 0.75 Light Drizzle -- 61.0 60.4 99% 61 NA 29.97 M
7:35 pm EDT N 3.5 0.75 Light Drizzle -- 61.0 60.8 100% NA NA 29.97 M
6:55 pm EDT NE 6.9 10.00 Light Drizzle -- 61.0 60.8 99% 60 NA 29.96 M
6:35 pm EDT NE 6.9 10.00 Light Drizzle -- 62.0 61.3 98% 62 NA 29.96 M
5:55 pm EDT NE 4.6 10.00 Drizzle -- 63.0 61.9 98% 64 NA 29.96 M
4:55 pm EDT NE 4.6 0.50 Fog -- 63.0 62.2 99% 64 NA 29.95 M
4:35 pm EDT NE 3.5 10.00 Drizzle -- 63.0 62.2 98% NA NA 29.95 M
3:55 pm EDT NE 6.9 7.00 Light Rain 00.03 62.0 61.9 99% 62 NA 29.95 M
2:55 pm EDT NE 4.6 7.00 Rain 00.08 62.0 61.5 99% 62 NA 29.97 M
1:55 pm EDT NE 5.8 3.00 Rain 00.09 62.0 61.2 98% 62 NA 30.01 M
12:55 pm EDT NE 3.5 10.00 Rain 00.06 62.0 61.3 98% NA NA 30.03 M
11:55 am EDT E 3.5 10.00 Light Rain 00.04 62.0 61.5 98% NA NA 30.05 M

Regional Weather Observation


Pineville, Kee Field Airport, WV (KI16)

Fog/Mist
64.0 F

Bluefield, Mercer County Airport, WV (KBLF)

Overcast
59.0 F

Wise / Lonesome Pine, VA (KLNP)

Light Rain
61.0 F

Abingdon, VA (KVJI)

Mostly Cloudy
62.0 F

Beckley, Raleigh County Memorial Airport, WV (KBKW)

Fog/Mist
61.0 F

Marion / Wytheville, VA (KMKJ)

Overcast
64.0 F